Location: Unspecified
(0.0000°N, 0.0000°E)
Time: 02:00:39
(UTC+00:00)

Vanguard 1 Rocket - All Passes

Search period start: 29 June 2016 00:00
Search period end: 09 July 2016 00:00
Orbit: 651 x 4226 km, 34.3° (Epoch: 27 June)

Date Brightness Start Highest point End Pass type
(mag) Time Alt. Az. Time Alt. Az. Time Alt. Az.
29 Jun - 03:43:53 10° S 03:49:45 18° SE 03:58:12 10° E visible
29 Jun - 06:05:24 10° SW 06:16:40 77° SE 06:38:46 10° ENE daylight
29 Jun - 08:32:29 10° W 08:48:26 47° NNW 09:12:49 10° NE daylight
29 Jun - 11:08:48 10° WNW 11:26:58 25° NNW 11:45:37 10° NE daylight
29 Jun - 13:51:56 10° NW 14:08:44 22° N 14:21:04 10° NE daylight
29 Jun - 16:27:06 10° NW 16:43:45 39° NNE 16:52:51 10° E daylight
29 Jun - 18:59:44 10° WNW 19:11:49 63° SW 19:18:06 10° SE visible
30 Jun - 04:55:14 10° SSW 05:04:19 48° SE 05:21:33 10° ENE visible
30 Jun - 07:19:54 10° WSW 07:33:19 63° NNW 07:57:24 10° NE daylight
30 Jun - 09:51:35 10° WNW 10:08:56 30° NNW 10:30:26 10° NE daylight
30 Jun - 12:33:17 10° NW 12:50:48 21° N 13:05:35 10° NE daylight
30 Jun - 15:11:29 10° NW 15:29:21 30° NNE 15:40:17 10° ENE daylight
30 Jun - 17:44:32 10° NW 18:00:11 76° NE 18:07:52 10° ESE daylight
30 Jun - 20:19:37 10° W 20:25:32 19° SW 20:29:47 10° S visible
01 Jul - 03:46:03 10° S 03:52:41 25° SE 04:03:18 10° E visible
01 Jul - 06:08:32 10° SW 06:19:33 87° NW 06:41:26 10° NE daylight
01 Jul - 08:36:41 10° W 08:52:07 39° NNW 09:15:08 10° NE daylight
01 Jul - 11:14:21 10° NW 11:31:56 22° N 11:49:33 10° NE daylight
01 Jul - 13:55:03 10° NW 14:13:26 25° NNE 14:26:19 10° ENE daylight
01 Jul - 16:29:13 10° NW 16:47:25 51° NNE 16:56:48 10° ESE daylight
01 Jul - 19:03:05 10° WNW 19:14:41 45° SW 19:21:01 10° SSE visible
02 Jul - 04:58:06 10° SW 05:07:02 62° SE 05:24:53 10° ENE visible
02 Jul - 07:23:37 10° WSW 07:36:41 51° NNW 07:59:38 10° NE daylight
02 Jul - 09:56:46 10° WNW 10:13:25 26° NNW 10:33:29 10° NE daylight
02 Jul - 12:37:38 10° NW 12:55:53 22° N 13:10:50 10° NE daylight
02 Jul - 15:13:40 10° NW 15:33:20 38° NNE 15:44:44 10° E daylight
02 Jul - 17:47:12 10° NW 18:03:17 82° SW 18:11:09 10° SE daylight
02 Jul - 20:25:09 10° WSW 20:28:31 13° SW 20:31:18 10° SSW visible
03 Jul - 03:48:31 10° SSW 03:55:29 34° SE 04:07:39 10° ENE visible
03 Jul - 06:11:53 10° WSW 06:22:38 71° NW 06:43:53 10° NE daylight
03 Jul - 08:41:15 10° WNW 08:56:08 32° NNW 09:17:34 10° NE daylight
03 Jul - 11:19:38 10° NW 11:37:07 22° N 11:54:08 10° NE daylight
03 Jul - 13:57:43 10° NW 14:17:50 30° NNE 14:31:19 10° ENE daylight
03 Jul - 16:31:29 10° NW 16:50:50 67° NNE 17:00:28 10° ESE daylight
03 Jul - 19:06:53 10° WNW 19:17:29 32° SW 19:23:42 10° SSE visible
04 Jul - 02:40:35 10° SSE 02:44:16 14° SE 02:49:00 10° ESE visible
04 Jul - 05:01:08 10° SW 05:09:53 80° SE 05:27:50 10° NE visible
04 Jul - 07:27:39 10° W 07:40:20 41° NNW 08:01:49 10° NE daylight
04 Jul - 10:02:09 10° NW 10:18:15 23° N 10:37:02 10° NE daylight
04 Jul - 12:41:16 10° NW 13:00:46 25° NNE 13:16:11 10° ENE daylight
04 Jul - 15:15:48 10° NW 15:37:04 48° NNE 15:48:50 10° E daylight
04 Jul - 17:50:09 10° WNW 18:06:12 62° SW 18:14:13 10° SE daylight
05 Jul - 03:51:12 10° SSW 03:58:15 45° SE 04:11:27 10° ENE visible
05 Jul - 06:15:28 10° WSW 06:25:57 56° NNW 06:46:09 10° NE daylight
05 Jul - 08:46:11 10° WNW 09:00:28 27° NNW 09:20:15 10° NE daylight
05 Jul - 11:24:23 10° NW 11:42:19 22° N 11:59:17 10° NE daylight
05 Jul - 14:00:07 10° NW 14:21:56 37° NNE 14:35:57 10° E daylight
05 Jul - 16:33:54 10° NW 16:54:00 84° NE 17:03:51 10° SE daylight
05 Jul - 19:11:15 10° W 19:20:18 23° SW 19:26:08 10° S visible
06 Jul - 02:42:21 10° S 02:47:13 21° SE 02:54:20 10° E visible
06 Jul - 05:04:22 10° WSW 05:12:55 80° NW 05:30:30 10° NE visible
06 Jul - 07:32:00 10° W 07:44:14 33° NNW 08:04:02 10° NE daylight
06 Jul - 10:07:29 10° NW 10:23:19 22° N 10:41:15 10° NE daylight
06 Jul - 12:44:21 10° NW 13:05:21 29° NNE 13:21:23 10° ENE daylight
06 Jul - 15:18:00 10° NW 15:40:33 60° NNE 15:52:37 10° ESE daylight
06 Jul - 17:53:28 10° WNW 18:08:58 47° SW 18:17:05 10° SSE daylight
07 Jul - 03:54:06 10° SW 04:01:04 62° SE 04:14:47 10° ENE visible
07 Jul - 06:19:20 10° W 06:29:32 43° NNW 06:48:18 10° NE daylight
07 Jul - 08:51:24 10° WNW 09:05:07 23° N 09:23:21 10° NE daylight
07 Jul - 11:28:27 10° NW 11:47:21 24° NNE 12:04:43 10° ENE daylight
07 Jul - 14:02:24 10° NW 14:25:44 45° NNE 14:40:14 10° E daylight
07 Jul - 16:36:34 10° NW 16:56:56 78° SW 17:07:02 10° SE daylight
07 Jul - 19:16:23 10° W 19:23:14 17° SW 19:28:10 10° S visible
08 Jul - 02:44:42 10° SSW 02:50:04 30° SE 02:58:45 10° E visible
08 Jul - 05:07:50 10° WSW 05:16:10 61° NNW 05:32:56 10° NE visible
08 Jul - 07:36:44 10° WNW 07:48:26 27° NNW 08:06:23 10° NE daylight
08 Jul - 10:12:28 10° NW 10:28:30 21° N 10:46:10 10° NE daylight
08 Jul - 12:47:03 10° NW 13:09:34 34° NNE 13:26:16 10° E daylight
08 Jul - 15:20:18 10° NW 15:43:45 74° NE 15:56:08 10° ESE daylight
08 Jul - 17:57:15 10° WNW 18:11:41 36° SW 18:19:47 10° SSE daylight
